When you browse on this site, cookies collect data to enhance your experience and personalize the content and advertising you see.
Visit our Privacy Policy to learn more. By continuing to use the site, you agree to this use of cookies and data.
  • In Portugal
  • List of Countries
  • For 7 days
  • Water Temperature
  • Satellite Maps
  • Weather Map
  • Weather Widgets
  • user-avatar
    Login

    Hourly Weather Jurkow

    Today, 22 February, Friday

    Time Temperature Precipitation Wind Pressure Humidity
    00:00 +5°C° 1.5 mm 5 mps 742 mmHg 92%
    01:00 +5°C° 1.5 mm 5 mps 742 mmHg 94%
    02:00 +5°C° 0.8 mm 5 mps 742 mmHg 94%
    03:00 +5°C° 0.8 mm 5 mps 742 mmHg 94%
    04:00 +5°C° 0.8 mm 5 mps 742 mmHg 94%
    05:00 +3°C° 0.3 mm 5 mps 743 mmHg 91%
    06:00 +2°C° 0.3 mm 6 mps 744 mmHg 89%
    07:00 +1°C° 0.3 mm 6 mps 745 mmHg 87%
    08:00 -1°C° 0 mm 6 mps 747 mmHg 83%
    09:00 -2°C° 0 mm 6 mps 748 mmHg 78%
    10:00 -1°C° 0 mm 5 mps 749 mmHg 74%
    11:00 -1°C° 0 mm 5 mps 750 mmHg 66%
    12:00 -1°C° 0 mm 5 mps 751 mmHg 58%
    13:00 0°C° 0 mm 5 mps 752 mmHg 50%
    14:00 0°C° 0 mm 5 mps 752 mmHg 49%
    15:00 -1°C° 0 mm 4 mps 753 mmHg 47%
    16:00 -1°C° 0 mm 4 mps 753 mmHg 46%
    17:00 -1°C° 0 mm 3 mps 754 mmHg 50%
    18:00 -2°C° 0 mm 3 mps 754 mmHg 54%
    19:00 -3°C° 0 mm 2 mps 755 mmHg 58%
    20:00 -3°C° 0 mm 2 mps 756 mmHg 57%
    21:00 -3°C° 0 mm 2 mps 756 mmHg 56%
    22:00 -4°C° 0 mm 2 mps 757 mmHg 55%
    23:00 -4°C° 0 mm 2 mps 757 mmHg 54%

    Tomorrow, 23 February, Saturday

    Time Temperature Precipitation Wind Pressure Humidity
    00:00 -4°C° 0 mm 2 mps 757 mmHg 53%
    01:00 -4°C° 0 mm 2 mps 757 mmHg 52%
    02:00 -4°C° 0 mm 2 mps 757 mmHg 52%
    03:00 -4°C° 0 mm 2 mps 756 mmHg 52%
    04:00 -4°C° 0 mm 2 mps 756 mmHg 52%
    05:00 -4°C° 0 mm 2 mps 756 mmHg 51%
    06:00 -4°C° 0 mm 2 mps 756 mmHg 50%
    07:00 -4°C° 0 mm 2 mps 757 mmHg 49%
    08:00 -3°C° 0 mm 2 mps 757 mmHg 43%
    09:00 -2°C° 0 mm 2 mps 757 mmHg 36%
    10:00 -1°C° 0 mm 2 mps 757 mmHg 29%
    11:00 +1°C° 0 mm 2 mps 757 mmHg 27%
    12:00 +2°C° 0 mm 2 mps 757 mmHg 25%
    13:00 +3°C° 0 mm 2 mps 757 mmHg 22%
    14:00 +3°C° 0 mm 2 mps 756 mmHg 25%
    15:00 +3°C° 0 mm 2 mps 756 mmHg 27%
    16:00 +3°C° 0 mm 2 mps 756 mmHg 29%
    17:00 +2°C° 0 mm 2 mps 755 mmHg 33%
    18:00 -1°C° 0 mm 2 mps 755 mmHg 37%
    19:00 -2°C° 0 mm 2 mps 755 mmHg 42%
    20:00 0°C° 0 mm 1 mps 755 mmHg 41%
    21:00 0°C° 0 mm 1 mps 755 mmHg 41%
    22:00 0°C° 0 mm 1 mps 755 mmHg 41%
    23:00 0°C° 0 mm 1 mps 755 mmHg 40%

    Day after tomorrow, 24 February, Sunday

    Time Temperature Precipitation Wind Pressure Humidity
    00:00 0°C° 0 mm 1 mps 755 mmHg 39%
    01:00 0°C° 0 mm 1 mps 754 mmHg 38%
    02:00 0°C° 0 mm 1 mps 754 mmHg 38%
    03:00 0°C° 0 mm 1 mps 754 mmHg 38%
    04:00 0°C° 0 mm 1 mps 754 mmHg 38%
    05:00 0°C° 0 mm 1 mps 754 mmHg 38%
    06:00 0°C° 0 mm 1 mps 754 mmHg 37%
    07:00 +1°C° 0 mm 1 mps 754 mmHg 37%
    08:00 +2°C° 0 mm 1 mps 754 mmHg 34%
    09:00 +4°C° 0 mm 1 mps 754 mmHg 31%
    10:00 +6°C° 0 mm 1 mps 754 mmHg 28%
    11:00 +6°C° 0 mm 2 mps 754 mmHg 29%
    12:00 +7°C° 0 mm 2 mps 754 mmHg 29%
    13:00 +8°C° 0 mm 2 mps 754 mmHg 29%
    14:00 +8°C° 0 mm 2 mps 754 mmHg 34%
    15:00 +7°C° 0 mm 2 mps 754 mmHg 39%
    16:00 +7°C° 0 mm 2 mps 754 mmHg 44%
    17:00 +6°C° 0 mm 2 mps 754 mmHg 47%
    18:00 +4°C° 0 mm 2 mps 754 mmHg 49%
    19:00 +3°C° 0 mm 2 mps 754 mmHg 52%
    20:00 +2°C° 0 mm 2 mps 754 mmHg 53%
    21:00 +3°C° 0 mm 1 mps 754 mmHg 53%
    22:00 +3°C° 0 mm 1 mps 754 mmHg 54%
    23:00 +2°C° 0 mm 2 mps 754 mmHg 55%

    25 February, Monday

    Time Temperature Precipitation Wind Pressure Humidity
    00:00 +2°C° 0 mm 2 mps 754 mmHg 55%
    01:00 +2°C° 0 mm 2 mps 754 mmHg 56%
    02:00 +2°C° 0 mm 2 mps 754 mmHg 57%
    03:00 +2°C° 0 mm 2 mps 754 mmHg 58%
    04:00 +2°C° 0 mm 2 mps 754 mmHg 58%
    05:00 +1°C° 0 mm 2 mps 754 mmHg 59%
    06:00 +1°C° 0 mm 2 mps 754 mmHg 60%
    07:00 +1°C° 0 mm 2 mps 754 mmHg 61%
    08:00 +3°C° 0 mm 2 mps 754 mmHg 57%
    09:00 +5°C° 0 mm 2 mps 754 mmHg 54%
    10:00 +7°C° 0 mm 2 mps 755 mmHg 50%
    11:00 +8°C° 0 mm 2 mps 754 mmHg 49%
    12:00 +9°C° 0 mm 2 mps 754 mmHg 48%
    13:00 +10°C° 0 mm 2 mps 754 mmHg 46%
    14:00 +10°C° 0 mm 2 mps 754 mmHg 48%
    15:00 +10°C° 0 mm 2 mps 753 mmHg 51%
    16:00 +10°C° 0 mm 2 mps 753 mmHg 53%
    17:00 +9°C° 0 mm 2 mps 753 mmHg 58%
    18:00 +7°C° 0 mm 2 mps 753 mmHg 63%
    19:00 +6°C° 0 mm 2 mps 753 mmHg 68%
    20:00 +5°C° 0 mm 2 mps 753 mmHg 69%
    21:00 +5°C° 0 mm 2 mps 753 mmHg 71%
    22:00 +5°C° 0 mm 2 mps 752 mmHg 72%
    23:00 +5°C° 0 mm 2 mps 752 mmHg 72%

    26 February, Tuesday

    Time Temperature Precipitation Wind Pressure Humidity
    00:00 +4°C° 0 mm 2 mps 752 mmHg 73%
    01:00 +3°C° 0 mm 3 mps 751 mmHg 73%
    02:00 +3°C° 0 mm 3 mps 751 mmHg 75%
    03:00 +3°C° 0 mm 3 mps 751 mmHg 77%
    04:00 +3°C° 0 mm 3 mps 750 mmHg 79%
    05:00 +2°C° 0 mm 3 mps 750 mmHg 80%
    06:00 +2°C° 0 mm 3 mps 750 mmHg 82%
    07:00 +2°C° 0 mm 3 mps 750 mmHg 84%
    08:00 +3°C° 0 mm 4 mps 750 mmHg 78%
    09:00 +5°C° 0 mm 4 mps 750 mmHg 72%
    10:00 +6°C° 0 mm 5 mps 750 mmHg 66%
    11:00 +7°C° 0 mm 5 mps 749 mmHg 62%
    12:00 +8°C° 0 mm 5 mps 749 mmHg 57%
    13:00 +9°C° 0 mm 5 mps 749 mmHg 52%
    14:00 +10°C° 0 mm 4 mps 749 mmHg 55%
    15:00 +10°C° 0 mm 4 mps 748 mmHg 57%
    16:00 +10°C° 0 mm 3 mps 748 mmHg 60%
    17:00 +9°C° 0 mm 3 mps 748 mmHg 65%
    18:00 +8°C° 0 mm 2 mps 749 mmHg 70%
    19:00 +7°C° 0 mm 2 mps 749 mmHg 75%
    20:00 +7°C° 0 mm 1 mps 749 mmHg 80%
    21:00 +7°C° 0 mm 1 mps 749 mmHg 84%
    22:00 +6°C° 0 mm 1 mps 749 mmHg 89%
    23:00 +5°C° 0 mm 1 mps 749 mmHg 90%

    27 February, Wednesday

    Time Temperature Precipitation Wind Pressure Humidity
    00:00 +5°C° 0 mm 1 mps 749 mmHg 90%
    01:00 +5°C° 0 mm 1 mps 748 mmHg 91%
    02:00 +4°C° 0 mm 1 mps 748 mmHg 91%
    03:00 +4°C° 0 mm 1 mps 748 mmHg 90%
    04:00 +4°C° 0 mm 1 mps 748 mmHg 90%
    05:00 +4°C° 0 mm 1 mps 748 mmHg 89%
    06:00 +4°C° 0 mm 1 mps 747 mmHg 87%
    07:00 +4°C° 0 mm 1 mps 747 mmHg 86%
    08:00 +5°C° 0 mm 2 mps 747 mmHg 81%
    09:00 +6°C° 0 mm 2 mps 747 mmHg 75%
    10:00 +8°C° 0 mm 2 mps 747 mmHg 70%
    11:00 +9°C° 0 mm 3 mps 747 mmHg 68%
    12:00 +11°C° 0 mm 3 mps 746 mmHg 67%
    13:00 +12°C° 0 mm 3 mps 746 mmHg 65%
    14:00 +12°C° 0 mm 3 mps 745 mmHg 67%
    15:00 +12°C° 0 mm 3 mps 744 mmHg 69%
    16:00 +12°C° 0 mm 3 mps 743 mmHg 71%
    17:00 +11°C° 0 mm 3 mps 743 mmHg 76%
    18:00 +10°C° 0 mm 3 mps 742 mmHg 82%
    19:00 +8°C° 0 mm 3 mps 742 mmHg 87%
    20:00 +7°C° 0 mm 4 mps 741 mmHg 86%
    21:00 +7°C° 0 mm 4 mps 741 mmHg 84%
    22:00 +7°C° 0 mm 5 mps 740 mmHg 83%
    23:00 +7°C° 0 mm 5 mps 740 mmHg 82%
    Show more